Home   Weather   Houston Point   Past weeks
Flag for USA

Past Weather in Houston Point, Montana, USA — Yesterday and Last 2 Weeks

Now
66 °F

Sunny.


Feels Like: 66 °F
Forecast: 74 / 45 °F
Wind: 7 mph from Southeast

Location: Kalispell - Glacier Park International

Current Time: Jul 5, 2020 at 11:53:37 am

Latest Report: Jul 5, 2020 at 10:55 am


Visibility: 10 mi

Pressure: 30.10 "Hg

Humidity: 45%

Dew Point: 44 °F

Location of Houston PointLocation

Past Weather in Houston Point — Graph

°F

Houston Point Temperature Yesterday

Maximum temperature yesterday: 78 °F (at 3:55 pm)
Minimum temperature yesterday: 49 °F (at 5:55 am)
Average temperature yesterday: 64 °F

High & Low Weather Summary for the Past Weeks

 TemperatureHumidityPressure
High83 °F (Jun 23, 5:55 pm)100% (Jun 21, 10:55 pm)30.16 "Hg (Jun 21, 10:55 pm)
Low41 °F (Jul 3, 1:55 am)22% (Jul 3, 6:55 pm)29.55 "Hg (Jun 27, 7:55 pm)
Average61 °F70%29.89 "Hg
* Reported Jun 20 9:55 am — Jul 5 9:55 am, Houston Point. Weather by CustomWeather, © 2020

Note: Actual official high and low records may vary slightly from our data, if they occured in-between our weather recording intervals... More about our weather records

Houston Point Weather History for the Previous 24 Hours

Scroll right to see more
 ConditionsComfort  
Time TempWeatherWind HumidityBarometerVisibility
9:55 am
Sun, Jul 5
63 °FSunny.No wind54%30.12 "Hg10 mi
8:55 am60 °FSunny.No wind60%30.11 "Hg10 mi
7:55 am53 °FSunny.3 mph77%30.12 "Hg10 mi
5:55 am44 °FSunny.No wind89%30.11 "Hg10 mi
4:55 am43 °FClear.No wind93%30.09 "Hg7 mi
3:55 am45 °FClear.No wind90%30.09 "Hg10 mi
2:55 am46 °FClear.No wind86%30.07 "Hg10 mi
1:55 am50 °FClear.No wind77%30.06 "Hg10 mi
12:55 am50 °FClear.No wind77%30.06 "Hg9 mi
11:55 pm
Sat, Jul 4
56 °FClear.No wind67%30.05 "Hg9 mi
10:55 pm62 °FClear.No wind43%30.03 "Hg10 mi
9:55 pm61 °FClear.8 mph50%30.02 "Hg10 mi
8:55 pm68 °FSunny.6 mph38%29.98 "Hg10 mi
7:55 pm72 °FSunny.7 mph29%29.96 "Hg10 mi
6:55 pm77 °FSunny.12 mph23%29.94 "Hg10 mi
5:55 pm78 °FSunny.14 mph25%29.94 "Hg10 mi
4:55 pm78 °FPassing clouds.5 mph25%29.95 "Hg10 mi
3:55 pm78 °FSunny.8 mph28%29.97 "Hg10 mi
2:55 pm77 °FSunny.10 mph30%29.98 "Hg10 mi
1:55 pm75 °FScattered clouds.7 mph28%29.98 "Hg10 mi
12:55 pm75 °FPassing clouds.9 mph28%29.99 "Hg10 mi
11:55 am70 °FPartly sunny.5 mph47%30.00 "Hg10 mi
Weather by CustomWeather, © 2020

See weather overview